Rochester, NH

10:46 AM EDT on April 28, 2017 (GMT -0400)
Skyhaven

Weather History for KDAW - July, 2012

Change the Weather History Date:

Wednesday, July 11, 2012

  Actual Average (KPSM) Record (KPSM)
Temperature  
Mean Temperature 69 °F -  
Max Temperature 86 °F 78 °F 96 °F (1988)
Min Temperature 54 °F 59 °F 43 °F (1983)
Cooling Degree Days 4    
Growing Degree Days 19 (Base 50)    
Moisture  
Dew Point 53 °F    
Average Humidity 56    
Maximum Humidity 93    
Minimum Humidity 29    
Precipitation  
Precipitation 0.00 in - - ()
Sea Level Pressure  
Sea Level Pressure 30.14 in    
Wind  
Wind Speed 3 mph (West)    
Max Wind Speed 8 mph    
Max Gust Speed -    
Visibility 10 miles    
Events      
Averages and records for this station are not official NWS values.
T = Trace of Precipitation, MM = Missing Value Source: NWS Daily Summary

Daily Weather History Graph

Daily Weather History Graph

Search for Another Location

Airport or City:

Trip Planner

Search our weather history database for the weather conditions in past years. The results will help you decide how hot, cold, wet, or windy it might be!

Date:

Astronomy

Jul. 11, 2012 Rise Set
Actual Time 5:14 AM EDT 8:23 PM EDT
Civil Twilight 4:39 AM EDT 8:58 PM EDT
Nautical Twilight 3:55 AM EDT 9:42 PM EDT
Astronomical Twilight 3:01 AM EDT 10:36 PM EDT
Moon No Moon Rise 1:51 PM EDT (7/11)
Length of Visible Light 16h 18m
Length of Day
15h 09m
Last Quarter, 44% of the Moon is Illuminated
Jul 11
Last Quarter
Jul 19
New
Jul 26
First Quarter
Aug 1
Full
Aug 9
Last Quarter

Hourly Weather History & Observations

Time (EDT) Temp. Heat Index Dew Point Humidity Pressure Visibility Wind Dir Wind Speed Gust Speed Precip Events Conditions
12:51 AM 62.1 °F - 55.0 °F 78% 30.08 in 10.0 mi Calm Calm - N/A   Clear
1:51 AM 57.9 °F - 54.0 °F 87% 30.08 in 10.0 mi WNW 4.6 mph - N/A   Clear
2:51 AM 57.0 °F - 53.1 °F 87% 30.08 in 10.0 mi NW 6.9 mph - N/A   Clear
4:51 AM 54.0 °F - 52.0 °F 93% 30.10 in 10.0 mi NW 4.6 mph - N/A   Clear
6:51 AM 63.0 °F - 55.0 °F 75% 30.14 in 10.0 mi NW 6.9 mph - N/A   Clear
7:51 AM 68.0 °F - 57.0 °F 68% 30.16 in 10.0 mi NW 5.8 mph - N/A   Clear
8:51 AM 73.9 °F - 57.9 °F 57% 30.17 in 10.0 mi Calm Calm - N/A   Clear
10:51 AM 81.0 °F 80.4 °F 53.1 °F 38% 30.16 in 10.0 mi Calm Calm - N/A   Clear
11:51 AM 84.0 °F - 48.9 °F 29% 30.16 in 10.0 mi North 3.5 mph - N/A   Clear
12:51 PM 84.0 °F - 50.0 °F 31% 30.15 in 10.0 mi Variable 3.5 mph - N/A   Partly Cloudy
1:51 PM 84.0 °F - 50.0 °F 31% 30.14 in 10.0 mi Variable 3.5 mph - N/A   Partly Cloudy
2:51 PM 84.0 °F 82.5 °F 53.1 °F 34% 30.14 in 10.0 mi ESE 5.8 mph - N/A   Scattered Clouds
3:51 PM 82.9 °F 81.8 °F 53.1 °F 36% 30.14 in 10.0 mi SSE 8.1 mph - N/A   Clear
4:51 PM 82.0 °F - 51.1 °F 34% 30.14 in 10.0 mi South 8.1 mph - N/A   Clear
5:51 PM 81.0 °F - 51.1 °F 35% 30.13 in 10.0 mi South 5.8 mph - N/A   Clear
7:51 PM 75.0 °F - 51.1 °F 43% 30.14 in 10.0 mi South 3.5 mph - N/A   Clear
8:51 PM 71.1 °F - 52.0 °F 51% 30.14 in 10.0 mi South 3.5 mph - N/A   Clear
9:51 PM 68.0 °F - 54.0 °F 61% 30.16 in 10.0 mi Calm Calm - N/A   Clear
10:51 PM 64.9 °F - 55.0 °F 70% 30.17 in 10.0 mi Calm Calm - N/A   Clear
11:51 PM 63.0 °F - 55.0 °F 75% 30.17 in 10.0 mi NW 3.5 mph - N/A   Clear